Time,TemperatureF,DewpointF,PressureIn,WindDirection,WindDirectionDegrees,WindSpeedMPH,WindSpeedGustMPH,Humidity,HourlyPrecipIn,Conditions,Clouds,dailyrainin,SolarRadiationWatts/m^2,SoftwareType,DateUTC
2013-03-30 00:02:00,47.0,36.0,-100.00,SSE,161,4.0,7.0,66,0.00,,,0.00,0.000000,,2013-03-30 06:02:00,
2013-03-30 00:11:00,47.0,36.0,-100.00,SSE,161,4.0,7.0,66,0.00,,,0.00,0.000000,,2013-03-30 06:11:00,
2013-03-30 00:42:00,43.0,32.0,-100.00,East,88,2.0,8.0,66,0.00,,,0.00,0.000000,,2013-03-30 06:42:00,
2013-03-30 00:52:00,43.0,32.0,-100.00,East,88,2.0,8.0,66,0.00,,,0.00,0.000000,,2013-03-30 06:52:00,
2013-03-30 01:02:00,43.0,32.0,-100.00,East,88,2.0,8.0,66,0.00,,,0.00,0.000000,,2013-03-30 07:02:00,
2013-03-30 01:12:00,43.0,32.0,-100.00,East,88,2.0,8.0,66,0.00,,,0.00,0.000000,,2013-03-30 07:12:00,
2013-03-30 02:32:00,38.0,35.0,-100.00,SSW,199,2.0,5.0,88,-99.99,,,0.00,0.000000,,2013-03-30 08:32:00,
2013-03-30 02:42:00,38.0,35.0,-100.00,SSW,199,2.0,5.0,88,-99.99,,,0.00,0.000000,,2013-03-30 08:42:00,
2013-03-30 02:53:00,38.0,35.0,-100.00,SSW,199,2.0,5.0,88,-99.99,,,0.00,0.000000,,2013-03-30 08:53:00,
2013-03-30 03:02:00,38.0,35.0,-100.00,SSW,199,2.0,5.0,88,-99.99,,,0.00,0.000000,,2013-03-30 09:02:00,
2013-03-30 03:11:00,38.0,35.0,-100.00,SSW,199,2.0,5.0,88,-99.99,,,0.00,0.000000,,2013-03-30 09:11:00,
2013-03-30 04:33:00,33.0,31.0,-100.00,East,100,1.0,4.0,93,-99.99,,,0.00,0.000000,,2013-03-30 10:33:00,
2013-03-30 04:42:00,33.0,31.0,-100.00,East,100,1.0,4.0,93,-99.99,,,0.00,0.000000,,2013-03-30 10:42:00,
2013-03-30 04:52:00,33.0,31.0,-100.00,East,100,1.0,4.0,93,-99.99,,,0.00,0.000000,,2013-03-30 10:52:00,
2013-03-30 05:03:00,33.0,31.0,-100.00,East,100,1.0,4.0,93,-99.99,,,0.00,0.000000,,2013-03-30 11:03:00,
2013-03-30 05:12:00,33.0,31.0,-100.00,East,100,1.0,4.0,93,-99.99,,,0.00,0.000000,,2013-03-30 11:12:00,
2013-03-30 05:33:00,32.0,31.0,-100.00,North,1,1.0,5.0,96,0.00,,,0.00,0.000000,,2013-03-30 11:33:00,
2013-03-30 05:43:00,32.0,31.0,-100.00,North,1,1.0,5.0,96,0.00,,,0.00,0.000000,,2013-03-30 11:43:00,
2013-03-30 05:53:00,32.0,31.0,-100.00,North,1,1.0,5.0,96,0.00,,,0.00,0.000000,,2013-03-30 11:53:00,
2013-03-30 06:02:00,32.0,31.0,-100.00,North,1,1.0,5.0,96,0.00,,,0.00,0.000000,,2013-03-30 12:02:00,
2013-03-30 06:12:00,32.0,31.0,-100.00,North,1,1.0,5.0,96,0.00,,,0.00,0.000000,,2013-03-30 12:12:00,
2013-03-30 06:33:00,31.0,30.0,-100.00,SSW,206,0.0,4.0,97,0.00,,,0.00,0.000000,,2013-03-30 12:33:00,
2013-03-30 06:42:00,31.0,30.0,-100.00,SSW,206,0.0,4.0,97,0.00,,,0.00,0.000000,,2013-03-30 12:42:00,
2013-03-30 06:53:00,31.0,30.0,-100.00,SSW,206,0.0,4.0,97,0.00,,,0.00,0.000000,,2013-03-30 12:53:00,
2013-03-30 07:02:00,31.0,30.0,-100.00,SSW,206,0.0,4.0,97,0.00,,,0.00,0.000000,,2013-03-30 13:02:00,
2013-03-30 07:12:00,31.0,30.0,-100.00,SSW,206,0.0,4.0,97,0.00,,,0.00,0.000000,,2013-03-30 13:12:00,
2013-03-30 07:43:00,30.0,29.0,-100.00,South,182,1.0,5.0,98,0.00,,,0.00,0.000000,,2013-03-30 13:43:00,
2013-03-30 07:52:00,30.0,29.0,-100.00,South,182,1.0,5.0,98,0.00,,,0.00,0.000000,,2013-03-30 13:52:00,
2013-03-30 08:02:00,30.0,29.0,-100.00,South,182,1.0,5.0,98,0.00,,,0.00,0.000000,,2013-03-30 14:02:00,
2013-03-30 08:11:00,30.0,29.0,-100.00,South,182,1.0,5.0,98,0.00,,,0.00,0.000000,,2013-03-30 14:11:00,
2013-03-30 08:42:00,31.0,31.0,-100.00,South,182,2.0,5.0,98,0.00,,,-99.99,26.000000,,2013-03-30 14:42:00,
2013-03-30 08:52:00,31.0,31.0,-100.00,South,182,2.0,5.0,98,0.00,,,-99.99,26.000000,,2013-03-30 14:52:00,
2013-03-30 09:02:00,31.0,31.0,-100.00,South,182,2.0,5.0,98,0.00,,,-99.99,26.000000,,2013-03-30 15:02:00,
2013-03-30 09:12:00,31.0,31.0,-100.00,South,182,2.0,5.0,98,0.00,,,-99.99,26.000000,,2013-03-30 15:12:00,
2013-03-30 09:43:00,41.0,36.0,-100.00,South,182,2.0,4.0,83,0.00,,,0.00,211.000000,,2013-03-30 15:43:00,
2013-03-30 09:53:00,41.0,36.0,-100.00,South,182,2.0,4.0,83,0.00,,,0.00,211.000000,,2013-03-30 15:53:00,
2013-03-30 10:03:00,41.0,36.0,-100.00,South,182,2.0,4.0,83,0.00,,,0.00,211.000000,,2013-03-30 16:03:00,
2013-03-30 10:12:00,41.0,36.0,-100.00,South,182,2.0,4.0,83,0.00,,,0.00,211.000000,,2013-03-30 16:12:00,
2013-03-30 10:33:00,49.0,39.0,-100.00,SW,227,2.0,5.0,68,0.00,,,0.00,392.000000,,2013-03-30 16:33:00,
2013-03-30 11:02:00,49.0,39.0,-100.00,SW,227,2.0,5.0,68,0.00,,,0.00,392.000000,,2013-03-30 17:02:00,
2013-03-30 11:12:00,49.0,39.0,-100.00,SW,227,2.0,5.0,68,0.00,,,0.00,392.000000,,2013-03-30 17:12:00,
2013-03-30 11:43:00,53.0,37.0,-100.00,East,87,3.0,5.0,55,0.00,,,0.00,617.000000,,2013-03-30 17:43:00,
2013-03-30 11:52:00,53.0,37.0,-100.00,East,87,3.0,5.0,55,0.00,,,0.00,617.000000,,2013-03-30 17:52:00,
2013-03-30 12:02:00,53.0,37.0,-100.00,East,87,3.0,5.0,55,0.00,,,0.00,617.000000,,2013-03-30 18:02:00,
2013-03-30 12:12:00,53.0,37.0,-100.00,East,87,3.0,5.0,55,0.00,,,0.00,617.000000,,2013-03-30 18:12:00,
2013-03-30 12:33:00,58.0,34.0,-100.00,SSW,205,4.0,7.0,40,0.00,,,-99.99,804.000000,,2013-03-30 18:33:00,
2013-03-30 13:02:00,58.0,34.0,-100.00,SSW,205,4.0,7.0,40,0.00,,,-99.99,804.000000,,2013-03-30 19:02:00,
2013-03-30 13:12:00,58.0,34.0,-100.00,SSW,205,4.0,7.0,40,0.00,,,-99.99,804.000000,,2013-03-30 19:12:00,
2013-03-30 14:43:00,63.0,29.0,-100.00,South,183,4.0,11.0,28,-99.99,,,0.00,969.000000,,2013-03-30 20:43:00,
2013-03-30 14:53:00,63.0,29.0,-100.00,South,183,4.0,11.0,28,-99.99,,,0.00,969.000000,,2013-03-30 20:53:00,
2013-03-30 15:02:00,63.0,29.0,-100.00,South,183,4.0,11.0,28,-99.99,,,0.00,969.000000,,2013-03-30 21:02:00,
2013-03-30 15:12:00,63.0,29.0,-100.00,South,183,4.0,11.0,28,-99.99,,,0.00,969.000000,,2013-03-30 21:12:00,
2013-03-30 15:43:00,63.0,28.0,-100.00,East,93,6.0,12.0,26,0.00,,,0.00,900.000000,,2013-03-30 21:43:00,
2013-03-30 15:53:00,63.0,28.0,-100.00,East,93,6.0,12.0,26,0.00,,,0.00,900.000000,,2013-03-30 21:53:00,
2013-03-30 16:02:00,63.0,28.0,-100.00,East,93,6.0,12.0,26,0.00,,,0.00,900.000000,,2013-03-30 22:02:00,
2013-03-30 16:12:00,63.0,28.0,-100.00,East,93,6.0,12.0,26,0.00,,,0.00,900.000000,,2013-03-30 22:12:00,
2013-03-30 16:43:00,64.0,26.0,-100.00,ESE,103,5.0,14.0,24,0.00,,,0.00,811.000000,,2013-03-30 22:43:00,
2013-03-30 16:53:00,64.0,26.0,-100.00,ESE,103,5.0,14.0,24,0.00,,,0.00,811.000000,,2013-03-30 22:53:00,
2013-03-30 17:02:00,64.0,26.0,-100.00,ESE,103,5.0,14.0,24,0.00,,,0.00,811.000000,,2013-03-30 23:02:00,
2013-03-30 17:12:00,64.0,26.0,-100.00,ESE,103,5.0,14.0,24,0.00,,,0.00,811.000000,,2013-03-30 23:12:00,
2013-03-30 17:43:00,63.0,26.0,-100.00,SE,146,7.0,13.0,24,0.00,,,0.00,628.000000,,2013-03-30 23:43:00,
2013-03-30 17:53:00,63.0,26.0,-100.00,SE,146,7.0,13.0,24,0.00,,,0.00,628.000000,,2013-03-30 23:53:00,
2013-03-30 18:02:00,63.0,26.0,-100.00,SE,146,7.0,13.0,24,0.00,,,0.00,628.000000,,2013-03-31 00:02:00,
2013-03-30 18:12:00,63.0,26.0,-100.00,SE,146,7.0,13.0,24,0.00,,,0.00,628.000000,,2013-03-31 00:12:00,
2013-03-30 18:43:00,63.0,25.0,-100.00,SSW,211,6.0,13.0,23,0.00,,,0.00,487.000000,,2013-03-31 00:43:00,
2013-03-30 18:52:00,63.0,25.0,-100.00,SSW,211,6.0,13.0,23,0.00,,,0.00,487.000000,,2013-03-31 00:52:00,
2013-03-30 19:02:00,63.0,25.0,-100.00,SSW,211,6.0,13.0,23,0.00,,,0.00,487.000000,,2013-03-31 01:02:00,
2013-03-30 19:12:00,63.0,25.0,-100.00,SSW,211,6.0,13.0,23,0.00,,,0.00,487.000000,,2013-03-31 01:12:00,
2013-03-30 19:32:00,60.0,25.0,-100.00,WSW,239,4.0,12.0,26,0.00,,,0.00,232.000000,,2013-03-31 01:32:00,
2013-03-30 19:43:00,60.0,25.0,-100.00,WSW,239,4.0,12.0,26,0.00,,,0.00,232.000000,,2013-03-31 01:43:00,
2013-03-30 19:52:00,60.0,25.0,-100.00,WSW,239,4.0,12.0,26,0.00,,,0.00,232.000000,,2013-03-31 01:52:00,
2013-03-30 20:02:00,60.0,25.0,-100.00,WSW,239,4.0,12.0,26,0.00,,,0.00,232.000000,,2013-03-31 02:02:00,
2013-03-30 20:12:00,60.0,25.0,-100.00,WSW,239,4.0,12.0,26,0.00,,,0.00,232.000000,,2013-03-31 02:12:00,
2013-03-30 20:43:00,51.0,26.0,-100.00,WNW,283,3.0,6.0,37,0.00,,,0.00,24.000000,,2013-03-31 02:43:00,
2013-03-30 20:52:00,51.0,26.0,-100.00,WNW,283,3.0,6.0,37,0.00,,,0.00,24.000000,,2013-03-31 02:52:00,
2013-03-30 21:02:00,51.0,26.0,-100.00,WNW,283,3.0,6.0,37,0.00,,,0.00,24.000000,,2013-03-31 03:02:00,
2013-03-30 21:12:00,51.0,26.0,-100.00,WNW,283,3.0,6.0,37,0.00,,,0.00,24.000000,,2013-03-31 03:12:00,
2013-03-30 21:43:00,43.0,31.0,-100.00,SE,124,6.0,8.0,62,0.00,,,0.00,0.000000,,2013-03-31 03:43:00,
2013-03-30 21:54:00,43.0,31.0,-100.00,SE,124,6.0,8.0,62,0.00,,,0.00,0.000000,,2013-03-31 03:54:00,
2013-03-30 22:02:00,43.0,-99.9,-100.00,SE,124,6.0,8.0,62,0.00,,,0.00,0.000000,,2013-03-31 04:02:00,
2013-03-30 22:12:00,43.0,31.0,-100.00,SE,124,6.0,8.0,62,0.00,,,0.00,0.000000,,2013-03-31 04:12:00,
2013-03-30 22:42:00,42.0,30.0,-100.00,SSW,196,3.0,8.0,63,0.00,,,0.00,0.000000,,2013-03-31 04:42:00,
2013-03-30 22:52:00,42.0,30.0,-100.00,SSW,196,3.0,8.0,63,0.00,,,0.00,0.000000,,2013-03-31 04:52:00,
2013-03-30 23:02:00,42.0,30.0,-100.00,SSW,196,3.0,8.0,63,0.00,,,0.00,0.000000,,2013-03-31 05:02:00,
2013-03-30 23:12:00,42.0,30.0,-100.00,SSW,196,3.0,8.0,63,0.00,,,0.00,0.000000,,2013-03-31 05:12:00,
2013-03-30 23:42:00,39.0,28.0,-100.00,SW,214,1.0,8.0,65,0.00,,,0.00,0.000000,,2013-03-31 05:42:00,
2013-03-30 23:53:00,39.0,28.0,-100.00,SW,214,1.0,8.0,65,0.00,,,0.00,0.000000,,2013-03-31 05:53:00,